Location: Eaglesham
(55.7833°N, 117.9000°W)
Time: 08:40:10
(UTC+00:00)

ISS - Pass Details

Date: 05 December 2021
Orbit: 413 x 422 km, 51.6° (Epoch: 23 January)

Event Time Altitude Azimuth Distance (km) Brightness Sun altitude
Rises 02:10:13 0° 273° (W) 2,385 1.5 -22.2°
Reaches altitude 10° 02:13:05 10° 247° (WSW) 1,513 0.1 -22.6°
Maximum altitude 02:14:55 14° 214° (SW) 1,292 -0.8 -22.9°
Enters shadow 02:16:27 11° 185° (S) 1,448 -0.9 -23.1°
